INTELSAT 14 (IS-14)

Last updated on Tue Sep 22 2026 00:03:11 GMT+0000 (Coordinated Universal Time)

1 36097U 09064A 26264.26633635 -.00000277 00000+0 00000+0 0 9993 2 36097 0.1558 84.3239 0002450 94.8187 231.9009 1.00271552 61568
UTC large
Height (km)
Speed (km/s)
/
Latitude / Longitude
Inclination (degrees)
Orbital Period (minutes)
Azimuth
Elevation
Range (km)
Doppler Factor

Next 0 passes for location: London (51.5072 / 0.1276)

No passes found over London.
INTELSAT 14 (IS-14)